This is the latest recevied weather packets stored in our database for station/object VA3BOO. If no packets are shown the sender has not sent any weather packets the latest 10 day(s).
| Time | Temp. | Humidity | Pressure | Rain* | Wind** | Luminosity | Snow |
|---|---|---|---|---|---|---|---|
| 1777985404 | 16.67° C | 71% | 1000.4 hPa | 0 mm | - | 171 W/m² | - |
| 1777985104 | 16.67° C | 69% | 1000.5 hPa | 0 mm | - | 204 W/m² | - |
| 1777984804 | 16.67° C | 72% | 1000.6 hPa | 0 mm | - | 173 W/m² | - |
| 1777984505 | 16.11° C | 73% | 1000.2 hPa | 0 mm | - | 156 W/m² | - |
| 1777984204 | 15.56° C | 75% | 1000.7 hPa | 0 mm | - | 168 W/m² | - |
| 1777983904 | 15° C | 76% | 1000.4 hPa | 0 mm | - | 182 W/m² | - |
| 1777983604 | 15° C | 79% | 1000.4 hPa | 0 mm | - | 142 W/m² | - |
| 1777983304 | 14.44° C | 78% | 1000.5 hPa | 0 mm | - | 131 W/m² | - |
| 1777983005 | 14.44° C | 81% | 1000.5 hPa | 0 mm | - | 119 W/m² | - |
| 1777982704 | 15° C | 82% | 1000.6 hPa | 0 mm | - | 98 W/m² | - |
| 1777982404 | 15.56° C | 77% | 1000.9 hPa | 0 mm | - | 47 W/m² | - |
| 1777982104 | 15.56° C | 76% | 1000.8 hPa | 0 mm | - | 51 W/m² | - |
| 1777981804 | 15.56° C | 74% | 1000.5 hPa | 0 mm | - | 114 W/m² | - |
| 1777981504 | 16.11° C | 74% | 1000.6 hPa | 0 mm | - | 71 W/m² | - |
| 1777981204 | 16.11° C | 75% | 1000.5 hPa | 0 mm | - | 59 W/m² | - |
| 1777980905 | 15.56° C | 76% | 1000.4 hPa | 0 mm | - | 53 W/m² | - |
| 1777980604 | 15° C | 78% | 1000.6 hPa | 0 mm | - | 22 W/m² | - |
| 1777980305 | 14.44° C | 80% | 1000.3 hPa | 0 mm | - | 41 W/m² | - |
| 1777980004 | 15° C | 80% | 1000.6 hPa | 0 mm | - | 41 W/m² | - |
| 1777979704 | 14.44° C | 81% | 1000.5 hPa | 0 mm | - | 26 W/m² | - |
| 1777979404 | 13.89° C | 83% | 1000.4 hPa | 0 mm | - | 43 W/m² | - |
| 1777979105 | 13.33° C | 85% | 1000.3 hPa | 0 mm | - | 77 W/m² | - |
| 1777978804 | 13.33° C | 86% | 1000.5 hPa | 0 mm | - | 44 W/m² | - |
| 1777978504 | 13.33° C | 87% | 1000.3 hPa | 0 mm | - | 37 W/m² | - |
| 1777978204 | 12.78° C | 90% | 1000.1 hPa | 0 mm | - | 44 W/m² | - |
* Rain latest hour (hover to see other rain measurements)
** Current wind speed in m/s (hover to see current wind gust speed)